Weather History for K2D5 - October, 2012

Change the Weather History Date:

Wednesday, October 24, 2012

  Actual Average (KABR) Record (KABR)
Temperature  
Mean Temperature 40 °F 42 °F  
Max Temperature 46 °F 54 °F 83 °F (1989)
Min Temperature 33 °F 30 °F 6 °F (1917)
Degree Days  
Heating Degree Days 26 23  
Month to date heating degree days 439  
Since 1 July heating degree days 713  
Cooling Degree Days 0 0  
Month to date cooling degree days 0  
Year to date cooling degree days 523  
Moisture  
Dew Point 36 °F    
Average Humidity 89    
Maximum Humidity 100    
Minimum Humidity 75    
Precipitation  
Precipitation 0.00 in 0.05 in 1.25 in (1900)
Month to date precipitation 1.66  
Year to date precipitation 20.14  
Snow  
Snow 0.00 in - - ()
Month to date snowfall  
Since 1 July snowfall  
Snow Depth -    
Sea Level Pressure  
Sea Level Pressure 29.95 in    
Wind  
Wind Speed 12 mph (NW)    
Max Wind Speed 20 mph    
Max Gust Speed 25 mph    
Visibility 10 miles    
Events Rain    
T = Trace of Precipitation, MM = Missing Value Source: NWS Daily Summary

Daily Weather History Graph

Daily Weather History Graph

Search for Another Location

Airport or City:

Trip Planner

Search our weather history database for the weather conditions in past years. The results will help you decide how hot, cold, wet, or windy it might be!

Date:

Astronomy

Oct. 24, 2012 Rise Set
Actual Time 8:02 AM CDT 6:29 PM CDT
Civil Twilight 7:31 AM CDT 7:00 PM CDT
Nautical Twilight 6:56 AM CDT 7:35 PM CDT
Astronomical Twilight 6:22 AM CDT 8:09 PM CDT
Moon 3:59 PM CDT (10/24) 2:43 AM CDT (10/24)
Length of Visible Light 11h 28m
Length of Day
10h 26m
Waxing Gibbous, 76% of the Moon is Illuminated
Oct 24
Waxing Gibbous
Oct 29
Full
Nov 6
Last Quarter
Nov 13
New
Nov 20
First Quarter

Hourly Weather History & Observations

Time (CDT) Temp. Windchill Dew Point Humidity Pressure Visibility Wind Dir Wind Speed Gust Speed Precip Events Conditions
12:15 AM 46.4 °F 41.5 °F 44.6 °F 93% 29.86 in 10.0 mi NW 10.4 mph 18.4 mph N/A   Overcast
12:35 AM 44.6 °F 37.4 °F 44.6 °F 100% 29.87 in 10.0 mi WNW 16.1 mph - N/A   Overcast
12:55 AM 44.6 °F 38.4 °F 42.8 °F 93% 29.87 in 10.0 mi NW 12.7 mph - N/A   Overcast
1:35 AM 42.8 °F 35.4 °F 39.2 °F 87% 29.90 in 10.0 mi WNW 15.0 mph 20.7 mph N/A   Mostly Cloudy
1:55 AM 42.8 °F 35.8 °F 39.2 °F 87% 29.88 in 10.0 mi WNW 13.8 mph - N/A   Clear
2:15 AM 42.8 °F 37.0 °F 39.2 °F 87% 29.89 in 10.0 mi NW 10.4 mph 17.3 mph N/A   Clear
2:35 AM 41.0 °F 35.8 °F 39.2 °F 93% 29.86 in 10.0 mi NNW 8.1 mph - N/A   Clear
2:55 AM 41.0 °F 35.2 °F 41.0 °F 100% 29.85 in 10.0 mi NNW 9.2 mph - N/A   Partly Cloudy
3:35 AM 41.0 °F 37.1 °F 41.0 °F 100% 29.88 in 10.0 mi NW 5.8 mph - N/A   Mostly Cloudy
3:55 AM 41.0 °F 38.0 °F 41.0 °F 100% 29.90 in 10.0 mi WNW 4.6 mph - N/A   Scattered Clouds
4:15 AM 41.0 °F 39.0 °F 41.0 °F 100% 29.89 in 10.0 mi NW 3.5 mph - N/A   Scattered Clouds
4:35 AM 41.0 °F 37.1 °F 41.0 °F 100% 29.90 in 10.0 mi WNW 5.8 mph - N/A   Mostly Cloudy
4:55 AM 41.0 °F 38.0 °F 41.0 °F 100% 29.89 in 10.0 mi NW 4.6 mph - N/A   Scattered Clouds
5:15 AM 41.0 °F 35.8 °F 41.0 °F 100% 29.92 in 10.0 mi WNW 8.1 mph - N/A   Scattered Clouds
5:35 AM 41.0 °F 35.2 °F 41.0 °F 100% 29.91 in 10.0 mi NW 9.2 mph - N/A   Mostly Cloudy
5:55 AM 41.0 °F 36.4 °F 41.0 °F 100% 29.91 in 10.0 mi NW 6.9 mph - N/A   Mostly Cloudy
6:15 AM 41.0 °F 39.0 °F 41.0 °F 100% 29.92 in 10.0 mi West 3.5 mph - N/A   Scattered Clouds
6:35 AM 41.0 °F - 41.0 °F 100% 29.93 in 10.0 mi Calm Calm - N/A   Scattered Clouds
6:55 AM 41.0 °F 39.0 °F 41.0 °F 100% 29.95 in 10.0 mi West 3.5 mph - N/A   Mostly Cloudy
7:15 AM 41.0 °F 34.3 °F 37.4 °F 87% 29.96 in 10.0 mi NW 11.5 mph 16.1 mph N/A   Mostly Cloudy
7:35 AM 39.2 °F 35.9 °F 39.2 °F 100% 29.98 in 10.0 mi West 4.6 mph - N/A   Scattered Clouds
7:55 AM 39.2 °F 33.6 °F 37.4 °F 93% 29.96 in 10.0 mi NW 8.1 mph - N/A   Scattered Clouds
8:15 AM 39.2 °F 34.2 °F 35.6 °F 87% 29.98 in 10.0 mi NW 6.9 mph - N/A   Mostly Cloudy
8:55 AM 39.2 °F 35.0 °F 35.6 °F 87% 29.96 in 10.0 mi NNW 5.8 mph - N/A   Scattered Clouds
9:15 AM 39.2 °F 34.2 °F 37.4 °F 93% 29.97 in 9.0 mi NNW 6.9 mph - N/A   Mostly Cloudy
9:35 AM 39.2 °F 32.5 °F 35.6 °F 87% 29.98 in 10.0 mi NW 10.4 mph - N/A   Mostly Cloudy
9:55 AM 39.2 °F 30.8 °F 35.6 °F 87% 29.96 in 10.0 mi NW 15.0 mph 20.7 mph N/A Rain Light Rain
10:15 AM 37.4 °F 29.3 °F 35.6 °F 93% 29.97 in 10.0 mi NW 12.7 mph - N/A Rain Light Rain
10:35 AM 37.4 °F 27.8 °F 35.6 °F 93% 29.97 in 10.0 mi NW 17.3 mph 23.0 mph N/A   Mostly Cloudy
11:15 AM 37.4 °F 29.3 °F 33.8 °F 87% 29.97 in 10.0 mi NW 12.7 mph - N/A   Mostly Cloudy
11:35 AM 37.4 °F 28.5 °F 35.6 °F 93% 29.97 in 10.0 mi NW 15.0 mph - N/A   Scattered Clouds
11:55 AM 37.4 °F 28.5 °F 35.6 °F 93% 29.97 in 10.0 mi NW 15.0 mph 20.7 mph N/A   Overcast
12:15 PM 37.4 °F 28.5 °F 35.6 °F 93% 29.97 in 10.0 mi NW 15.0 mph - N/A   Mostly Cloudy
12:35 PM 37.4 °F 28.2 °F 35.6 °F 93% 29.98 in 10.0 mi NW 16.1 mph - N/A   Scattered Clouds
12:55 PM 37.4 °F 27.8 °F 35.6 °F 93% 29.98 in 10.0 mi NW 17.3 mph 21.9 mph N/A   Mostly Cloudy
1:15 PM 37.4 °F 28.9 °F 33.8 °F 87% 29.98 in 10.0 mi NW 13.8 mph 18.4 mph N/A   Mostly Cloudy
1:35 PM 37.4 °F 29.3 °F 33.8 °F 87% 29.98 in 10.0 mi NW 12.7 mph 19.6 mph N/A   Overcast
1:55 PM 37.4 °F 28.9 °F 33.8 °F 87% 29.98 in 10.0 mi WNW 13.8 mph - N/A   Mostly Cloudy
2:15 PM 37.4 °F 28.2 °F 33.8 °F 87% 29.97 in 10.0 mi NW 16.1 mph - N/A   Mostly Cloudy
2:35 PM 37.4 °F 27.2 °F 32.0 °F 81% 29.96 in 10.0 mi NW 19.6 mph 24.2 mph N/A   Overcast
2:55 PM 37.4 °F 27.5 °F 32.0 °F 81% 29.95 in 10.0 mi NW 18.4 mph - N/A   Mostly Cloudy
3:15 PM 37.4 °F 28.2 °F 33.8 °F 87% 29.95 in 10.0 mi NW 16.1 mph - N/A   Mostly Cloudy
3:35 PM 39.2 °F 29.6 °F 33.8 °F 81% 29.94 in 10.0 mi NW 19.6 mph - N/A   Scattered Clouds
4:15 PM 39.2 °F 30.5 °F 33.8 °F 81% 29.94 in 10.0 mi NNW 16.1 mph 20.7 mph N/A   Partly Cloudy
4:35 PM 39.2 °F 29.6 °F 33.8 °F 81% 29.95 in 10.0 mi NNW 19.6 mph 24.2 mph N/A   Partly Cloudy
4:55 PM 39.2 °F 30.2 °F 33.8 °F 81% 29.95 in 10.0 mi NNW 17.3 mph - N/A   Partly Cloudy
5:35 PM 37.4 °F 27.8 °F 32.0 °F 81% 29.96 in 10.0 mi NNW 17.3 mph - N/A   Mostly Cloudy
5:55 PM 37.4 °F 28.2 °F 32.0 °F 81% 29.96 in 10.0 mi NNW 16.1 mph - N/A   Mostly Cloudy
6:15 PM 37.4 °F 28.2 °F 32.0 °F 81% 29.97 in 10.0 mi NNW 16.1 mph - N/A   Scattered Clouds
6:35 PM 37.4 °F 27.5 °F 32.0 °F 81% 29.98 in 10.0 mi NNW 18.4 mph - N/A   Partly Cloudy
6:55 PM 37.4 °F 28.5 °F 32.0 °F 81% 29.98 in 10.0 mi NNW 15.0 mph - N/A   Mostly Cloudy
7:15 PM 37.4 °F 27.5 °F 32.0 °F 81% 29.98 in 10.0 mi NNW 18.4 mph 25.3 mph N/A   Mostly Cloudy
7:55 PM 35.6 °F 24.8 °F 32.0 °F 87% 30.00 in 10.0 mi NNW 19.6 mph - N/A   Partly Cloudy
8:15 PM 35.6 °F 26.2 °F 32.0 °F 87% 30.02 in 10.0 mi NNW 15.0 mph - N/A   Mostly Cloudy
8:35 PM 35.6 °F 25.5 °F 32.0 °F 87% 30.01 in 10.0 mi NNW 17.3 mph 21.9 mph N/A   Mostly Cloudy
8:55 PM 35.6 °F 27.1 °F 32.0 °F 87% 30.01 in 10.0 mi NNW 12.7 mph - N/A   Scattered Clouds
9:15 PM 35.6 °F 26.6 °F 32.0 °F 87% 30.01 in 10.0 mi NNW 13.8 mph - N/A   Scattered Clouds
9:55 PM 35.6 °F 26.2 °F 30.2 °F 81% 30.01 in 10.0 mi NNW 15.0 mph 19.6 mph N/A   Clear
10:15 PM 35.6 °F 25.5 °F 30.2 °F 81% 30.01 in 10.0 mi NNW 17.3 mph - N/A   Clear
10:35 PM 35.6 °F 26.6 °F 30.2 °F 81% 30.02 in 10.0 mi NNW 13.8 mph - N/A   Clear
10:55 PM 35.6 °F 24.8 °F 28.4 °F 75% 30.02 in 10.0 mi NNW 19.6 mph 24.2 mph N/A   Clear
11:15 PM 33.8 °F 23.9 °F 30.2 °F 87% 30.03 in 10.0 mi NNW 15.0 mph - N/A   Clear
11:35 PM 33.8 °F 23.5 °F 28.4 °F 81% 30.02 in 10.0 mi NNW 16.1 mph - N/A   Unknown
11:55 PM 33.8 °F 22.8 °F 28.4 °F 81% 30.02 in 10.0 mi NNW 18.4 mph 25.3 mph N/A   Unknown